| time (UTC) | temp C | wind direction | speed KPH | gust KPH | rain 1hr cm | rain 24hr cm | rain mn cm | humidity % | barometer mb |
| 20260509053051 | 8 | 224 | 1.6 | 4.8 | 0.00 | 0.00 | 0.00 | 56 | 1005.0 |
| 20260509051549 | 8 | 224 | 3.2 | 4.8 | 0.00 | 0.00 | 0.00 | 54 | 1005.0 |
| 20260509050044 | 9 | 224 | 0.0 | 3.2 | 0.00 | 0.00 | 0.00 | 52 | 1005.2 |
| 20260509044542 | 9 | 224 | 0.0 | 1.6 | 0.00 | 0.00 | 0.00 | 52 | 1005.3 |
| 20260509043046 | 10 | 224 | 1.6 | 4.8 | 0.00 | 0.00 | 0.00 | 53 | 1005.4 |
| 20260509041535 | 10 | 224 | 1.6 | 4.8 | 0.00 | 0.00 | 0.00 | 50 | 1005.5 |
| 20260509040039 | 11 | 224 | 3.2 | 4.8 | 0.00 | 0.00 | 0.00 | 51 | 1005.7 |
| 20260509034546 | 11 | 224 | 1.6 | 4.8 | 0.00 | 0.00 | 0.00 | 50 | 1005.8 |
| 20260509033031 | 11 | 224 | 1.6 | 4.8 | 0.00 | 0.00 | 0.00 | 46 | 1005.8 |
| 20260509031531 | 11 | 224 | 1.6 | 4.8 | 0.00 | 0.00 | 0.00 | 47 | 1006.1 |
| 20260509030031 | 12 | 224 | 3.2 | 6.4 | 0.00 | 0.00 | 0.00 | 46 | 1006.2 |
| 20260509024534 | 12 | 224 | 1.6 | 4.8 | 0.00 | 0.00 | 0.00 | 43 | 1006.3 |
| 20260509023128 | 13 | 224 | 3.2 | 4.8 | 0.00 | 0.00 | 0.00 | 40 | 1006.3 |
| 20260509021529 | 14 | 224 | 1.6 | 6.4 | 0.00 | 0.00 | 0.00 | 37 | 1006.3 |
| 20260509020028 | 15 | 225 | 4.8 | 8.0 | 0.00 | 0.00 | 0.00 | 34 | 1006.2 |
| 20260509014528 | 15 | 227 | 4.8 | 11.3 | 0.00 | 0.00 | 0.00 | 34 | 1006.2 |
| 20260509013027 | 15 | 227 | 3.2 | 8.0 | 0.00 | 0.00 | 0.00 | 34 | 1006.1 |
| 20260509011526 | 15 | 229 | 4.8 | 8.0 | 0.00 | 0.00 | 0.00 | 33 | 1006.1 |
| 20260509010032 | 15 | 229 | 3.2 | 9.7 | 0.00 | 0.00 | 0.00 | 33 | 1006.0 |
| 20260509004534 | 16 | 232 | 8.0 | 12.9 | 0.00 | 0.00 | 0.00 | 31 | 1006.1 |
| 20260509003024 | 16 | 226 | 8.0 | 11.3 | 0.00 | 0.00 | 0.00 | 30 | 1005.9 |
| 20260509001526 | 16 | 244 | 8.0 | 14.5 | 0.00 | 0.00 | 0.00 | 30 | 1005.9 |
| 20260509000023 | 16 | 238 | 8.0 | 16.1 | 0.00 | 0.00 | 0.00 | 30 | 1005.8 |
| 20260508234526 | 16 | 226 | 8.0 | 11.3 | 0.00 | 0.00 | 0.00 | 29 | 1005.8 |
| 20260508233021 | 16 | 259 | 6.4 | 14.5 | 0.00 | 0.00 | 0.00 | 30 | 1005.9 |
| 20260508231520 | 16 | 243 | 3.2 | 16.1 | 0.00 | 0.00 | 0.00 | 29 | 1006.0 |
| 20260508230019 | 17 | 246 | 9.7 | 16.1 | 0.00 | 0.00 | 0.00 | 28 | 1006.1 |
| 20260508224522 | 17 | 223 | 12.9 | 20.9 | 0.00 | 0.00 | 0.00 | 29 | 1006.2 |
| 20260508223020 | 17 | 237 | 6.4 | 16.1 | 0.00 | 0.00 | 0.00 | 30 | 1006.2 |
| 20260508221516 | 16 | 246 | 8.0 | 17.7 | 0.00 | 0.00 | 0.00 | 30 | 1006.4 |
| 20260508220015 | 17 | 239 | 14.5 | 29.0 | 0.00 | 0.00 | 0.00 | 27 | 1006.4 |
| 20260508214521 | 17 | 216 | 9.7 | 22.5 | 0.00 | 0.00 | 0.00 | 30 | 1006.3 |
| 20260508213016 | 17 | 238 | 9.7 | 19.3 | 0.00 | 0.00 | 0.00 | 29 | 1006.3 |
| 20260508211511 | 17 | 284 | 11.3 | 27.4 | 0.00 | 0.00 | 0.00 | 30 | 1006.5 |
| 20260508210010 | 17 | 241 | 6.4 | 22.5 | 0.00 | 0.00 | 0.00 | 30 | 1006.5 |
| 20260508204508 | 16 | 273 | 12.9 | 27.4 | 0.00 | 0.00 | 0.00 | 28 | 1006.8 |
| 20260508203013 | 17 | 259 | 14.5 | 27.4 | 0.00 | 0.00 | 0.00 | 29 | 1007.0 |
| 20260508201509 | 16 | 217 | 11.3 | 24.1 | 0.00 | 0.00 | 0.00 | 28 | 1007.3 |
| 20260508200002 | 17 | 261 | 16.1 | 24.1 | 0.00 | 0.00 | 0.00 | 30 | 1007.4 |
| 20260508194559 | 16 | 275 | 12.9 | 29.0 | 0.00 | 0.00 | 0.00 | 30 | 1007.6 |
| 20260508193113 | 16 | 229 | 6.4 | 17.7 | 0.00 | 0.00 | 0.00 | 29 | 1007.9 |
| 20260508191559 | 16 | 265 | 9.7 | 22.5 | 0.00 | 0.00 | 0.00 | 29 | 1008.1 |
| 20260508190106 | 15 | 244 | 9.7 | 27.4 | 0.00 | 0.00 | 0.00 | 29 | 1008.2 |
| 20260508184557 | 16 | 229 | 9.7 | 22.5 | 0.00 | 0.00 | 0.00 | 32 | 1008.5 |
| 20260508183109 | 16 | 248 | 14.5 | 20.9 | 0.00 | 0.00 | 0.00 | 29 | 1008.6 |
| 20260508181548 | 15 | 218 | 9.7 | 17.7 | 0.00 | 0.00 | 0.00 | 31 | 1008.7 |
| 20260508180056 | 15 | 277 | 8.0 | 20.9 | 0.00 | 0.00 | 0.00 | 32 | 1009.0 |
| 20260508174558 | 15 | 288 | 4.8 | 19.3 | 0.00 | 0.00 | 0.00 | 33 | 1009.2 |
| 20260508173037 | 15 | 259 | 14.5 | 24.1 | 0.00 | 0.00 | 0.00 | 33 | 1009.4 |
| 20260508171535 | 14 | 244 | 9.7 | 24.1 | 0.00 | 0.00 | 0.00 | 35 | 1009.6 |
| 20260508170037 | 14 | 201 | 11.3 | 27.4 | 0.00 | 0.00 | 0.00 | 34 | 1009.9 |
| 20260508164537 | 13 | 225 | 3.2 | 24.1 | 0.00 | 0.00 | 0.00 | 36 | 1010.1 |
| 20260508163031 | 13 | 235 | 12.9 | 25.7 | 0.00 | 0.00 | 0.00 | 34 | 1010.3 |
| 20260508161526 | 13 | 219 | 9.7 | 17.7 | 0.00 | 0.00 | 0.00 | 36 | 1010.4 |
| 20260508160024 | 13 | 212 | 11.3 | 22.5 | 0.00 | 0.00 | 0.00 | 38 | 1010.5 |
| 20260508154521 | 12 | 264 | 3.2 | 22.5 | 0.00 | 0.00 | 0.00 | 42 | 1010.6 |
| 20260508153119 | 12 | 217 | 9.7 | 19.3 | 0.00 | 0.00 | 0.00 | 41 | 1010.7 |
| 20260508151517 | 12 | 276 | 14.5 | 22.5 | 0.00 | 0.00 | 0.00 | 43 | 1010.9 |
| 20260508150015 | 12 | 240 | 11.3 | 22.5 | 0.00 | 0.00 | 0.00 | 44 | 1011.0 |
| 20260508144518 | 11 | 261 | 8.0 | 17.7 | 0.00 | 0.00 | 0.00 | 48 | 1011.1 |
| 20260508143009 | 11 | 269 | 9.7 | 20.9 | 0.00 | 0.00 | 0.00 | 52 | 1011.2 |
| 20260508141510 | 11 | 234 | 11.3 | 19.3 | 0.00 | 0.00 | 0.00 | 55 | 1011.3 |
| 20260508140007 | 10 | 228 | 11.3 | 17.7 | 0.00 | 0.00 | 0.00 | 58 | 1011.3 |
| 20260508134600 | 10 | 227 | 9.7 | 17.7 | 0.00 | 0.00 | 0.00 | 58 | 1011.3 |
| 20260508133058 | 9 | 216 | 8.0 | 14.5 | 0.00 | 0.00 | 0.00 | 61 | 1011.4 |
| 20260508131606 | 8 | 202 | 4.8 | 12.9 | 0.00 | 0.00 | 0.00 | 63 | 1011.5 |
| 20260508130051 | 8 | 198 | 4.8 | 17.7 | 0.00 | 0.00 | 0.00 | 67 | 1011.4 |
| 20260508124548 | 7 | 234 | 11.3 | 16.1 | 0.00 | 0.00 | 0.00 | 70 | 1011.5 |
| 20260508123105 | 7 | 227 | 4.8 | 11.3 | 0.00 | 0.00 | 0.00 | 78 | 1011.4 |
| 20260508121550 | 6 | 217 | 3.2 | 8.0 | 0.00 | 0.00 | 0.00 | 83 | 1011.4 |
| 20260508120104 | 5 | 218 | 6.4 | 11.3 | 0.00 | 0.00 | 0.00 | 86 | 1011.2 |
| 20260508114556 | 4 | 207 | 3.2 | 6.4 | 0.00 | 0.00 | 0.00 | 88 | 1011.0 |
| 20260508113048 | 3 | 208 | 1.6 | 4.8 | 0.00 | 0.00 | 0.00 | 89 | 1010.9 |
| 20260508111545 | 2 | 209 | 1.6 | 4.8 | 0.00 | 0.00 | 0.00 | 89 | 1010.9 |
| 20260508110041 | 2 | 209 | 3.2 | 6.4 | 0.00 | 0.00 | 0.00 | 87 | 1011.0 |
| 20260508104542 | 2 | 240 | 0.0 | 0.0 | 0.00 | 0.00 | 0.00 | 85 | 1010.9 |
| 20260508103052 | 2 | 240 | 0.0 | 3.2 | 0.00 | 0.00 | 0.00 | 82 | 1011.0 |
| 20260508101533 | 3 | 240 | 0.0 | 4.8 | 0.00 | 0.00 | 0.00 | 82 | 1010.9 |
| 20260508100032 | 3 | 240 | 3.2 | 6.4 | 0.00 | 0.00 | 0.00 | 83 | 1011.0 |
| 20260508094530 | 3 | 242 | 1.6 | 6.4 | 0.00 | 0.00 | 0.00 | 84 | 1011.0 |
| 20260508093037 | 3 | 238 | 1.6 | 3.2 | 0.00 | 0.00 | 0.00 | 83 | 1011.0 |
| 20260508091532 | 4 | 238 | 3.2 | 6.4 | 0.00 | 0.00 | 0.00 | 81 | 1011.1 |
| 20260508090023 | 4 | 238 | 4.8 | 8.0 | 0.00 | 0.00 | 0.00 | 81 | 1011.1 |
| 20260508084520 | 5 | 239 | 4.8 | 8.0 | 0.00 | 0.00 | 0.00 | 80 | 1011.1 |
| 20260508083016 | 5 | 240 | 3.2 | 4.8 | 0.00 | 0.00 | 0.00 | 80 | 1011.1 |
| 20260508081516 | 5 | 240 | 1.6 | 4.8 | 0.00 | 0.00 | 0.00 | 79 | 1011.1 |
| 20260508080013 | 5 | 240 | 3.2 | 6.4 | 0.00 | 0.00 | 0.00 | 79 | 1011.3 |
| 20260508074519 | 5 | 240 | 3.2 | 6.4 | 0.00 | 0.00 | 0.00 | 79 | 1011.2 |
| 20260508073012 | 5 | 240 | 3.2 | 4.8 | 0.00 | 0.00 | 0.00 | 79 | 1011.3 |
| 20260508071514 | 6 | 240 | 3.2 | 6.4 | 0.00 | 0.00 | 0.00 | 78 | 1011.3 |
| 20260508070005 | 6 | 240 | 3.2 | 8.0 | 0.00 | 0.00 | 0.00 | 77 | 1011.4 |
| 20260508064502 | 6 | 240 | 3.2 | 8.0 | 0.00 | 0.00 | 0.00 | 75 | 1011.5 |
| 20260508063107 | 7 | 236 | 4.8 | 12.9 | 0.00 | 0.00 | 0.00 | 74 | 1011.4 |
| 20260508061557 | 7 | 233 | 4.8 | 8.0 | 0.00 | 0.00 | 0.00 | 74 | 1011.3 |
| 20260508060055 | 7 | 233 | 3.2 | 8.0 | 0.00 | 0.00 | 0.00 | 70 | 1011.2 |
| 20260508054554 | 7 | 232 | 4.8 | 9.7 | 0.00 | 0.00 | 0.00 | 70 | 1011.2 |